Lid_Strength_Index
5 5 5 5 5 5 5 5 5 5 5 5 5 4 3 4 6 8 12 9 7 5 5 6 6 7 7 8 6 5 10 12 11 11 10 9 10 9 8 9 8 9 10 10 9
5 5 6 5 5 5 5 5 5 5 5 5 5 4 4 4 9 12 9 7 6 5 9 8 10 9 9 9 9 9 12 11 11 11 12 11 11 10 10 10 11 11 10 10 9
6 6 6 5 5 4 3 4 5 5 5 5 5 5 4 3 10 13 8 7 6 7 9 7 8 9 10 9 10 10 12 11 12 11 12 12 12 11 12 13 14 14 13 11 10
6 6 5 4 3 2 3 3 3 3 4 4 4 4 3 7 14 13 8 8 7 8 8 8 9 11 11 11 10 12 11 12 12 12 14 14 12 13 15 15 13 13 12 11 11
5 5 4 3 3 3 3 3 4 4 3 4 4 4 8 12 14 11 9 9 9 9 9 9 10 11 12 11 11 12 12 11 11 13 14 13 13 13 15 13 13 12 12 12 12
5 5 4 3 3 2 2 2 3 3 3 3 3 7 9 13 10 10 9 9 9 8 8 8 9 8 10 11 11 11 11 12 12 13 14 14 12 11 13 12 12 12 12 12 12
5 5 4 4 3 3 2 4 3 2 2 5 8 9 12 15 10 9 9 9 8 8 9 9 8 9 9 11 11 11 12 12 14 14 15 14 14 15 12 11 12 12 12 12 12
5 5 5 4 4 4 4 5 5 4 5 7 8 9 14 10 9 10 9 9 8 8 9 9 9 11 12 12 12 13 12 14 15 15 15 14 17 14 12 12 12 12 12 12 12
5 6 5 4 4 4 5 6 6 6 7 7 8 9 14 10 12 10 9 11 9 9 10 10 10 12 12 12 13 14 14 16 16 15 15 14 16 13 12 12 13 12 12 12 12
5 6 5 5 4 4 4 5 6 7 8 9 9 11 12 14 12 10 9 10 10 10 11 11 11 12 14 13 15 16 16 17 17 16 15 15 15 13 12 12 12 12 12 12 12
5 6 6 5 5 5 5 6 8 9 11 14 14 14 14 12 10 11 10 11 10 11 14 13 14 17 17 16 17 17 17 17 16 16 16 17 16 14 13 13 13 13 12 12 12
5 6 6 6 6 6 5 9 11 10 15 12 13 13 12 12 14 12 10 12 12 15 13 14 18 17 16 16 17 17 17 17 16 16 16 16 16 14 13 13 13 13 12 12 12
5 6 6 6 7 6 8 10 8 9 12 14 13 14 14 12 15 15 12 13 13 15 14 15 18 16 17 16 17 17 18 18 18 16 15 15 15 15 13 12 12 12 12 12 12
5 6 7 7 7 7 9 9 7 7 11 16 15 14 13 13 16 12 12 13 15 16 16 17 16 17 17 18 17 18 17 18 18 17 17 15 17 15 13 13 13 13 12 12 12
5 6 7 6 8 8 9 7 6 7 15 16 15 11 13 14 15 14 12 12 16 17 15 18 17 17 17 18 17 18 16 17 17 17 17 16 17 15 14 15 14 13 13 12 12
6 7 8 8 7 9 8 7 7 12 16 18 15 16 15 15 15 14 14 12 13 15 15 17 15 16 17 17 17 16 17 17 16 17 18 17 18 15 15 14 14 13 13 13 12
6 8 9 9 9 8 6 8 12 15 17 17 17 16 16 17 16 15 16 16 15 16 17 18 17 16 16 17 16 16 17 16 18 18 18 17 19 15 13 14 14 14 13 13 12
7 9 10 10 8 7 7 10 16 17 17 17 16 16 16 17 17 16 16 16 17 17 16 17 17 18 17 18 20 18 18 17 20 19 18 18 20 15 13 13 13 13 13 12 12
8 8 9 10 8 7 9 13 14 15 16 16 17 17 18 18 17 16 16 16 18 18 16 17 19 17 17 17 17 18 18 18 20 22 22 17 15 14 13 14 14 14 13 13 12
8 9 11 9 8 7 11 12 17 15 15 15 15 17 16 18 17 17 17 16 18 17 18 18 18 18 17 17 17 18 16 20 19 22 22 18 19 16 16 15 14 14 14 13 12
9 10 11 9 8 8 12 14 18 15 14 16 16 18 16 17 16 16 16 17 16 17 16 18 19 20 19 19 18 20 19 20 19 20 21 22 17 12 13 13 14 14 14 13 12
9 12 10 9 10 12 13 17 15 15 14 15 16 16 16 17 17 17 16 18 15 15 18 17 18 19 18 18 18 18 18 18 20 21 21 22 21 13 14 14 14 13 13 13 12
9 11 10 9 11 13 17 17 15 16 16 16 17 15 16 17 18 18 17 16 15 16 17 17 18 19 20 20 19 21 19 18 19 20 22 22 18 14 15 14 14 14 13 12 12
9 11 11 11 13 13 16 16 17 15 16 16 16 16 17 18 17 19 18 16 15 15 15 16 19 20 18 20 19 22 20 19 20 21 20 21 18 14 13 14 13 13 12 12 12
11 13 17 12 14 14 15 16 17 18 16 15 17 16 17 20 19 19 17 17 16 15 15 17 22 22 21 19 19 20 21 20 21 20 21 18 17 15 13 14 14 13 13 13 13
11 12 16 17 17 16 16 17 16 17 17 17 18 15 17 18 16 18 17 17 18 17 17 18 21 24 24 20 20 22 20 20 20 19 19 19 20 14 14 13 14 13 13 14 13
12 13 11 16 16 15 13 15 15 15 15 15 15 15 17 16 15 15 14 15 15 18 18 20 20 23 22 22 22 24 22 21 20 19 19 21 17 14 14 14 14 13 13 14 13